[[{"header":{"parameterUnit":"m.s-1","parameterCategory":1,"la1":30.2991,"la2":30.254,"lo1":-89.0895,"lo2":-89.0444,"dy":0.0017,"dx":0.0017,"nx":28,"ny":28,"refTime":"2025-06-20T21:00:00:Z","depth":0,"parameterNumber":2,"parameterNumberName":"U-component_of_WINDS"},"data":[0,0,0,0,0,0,0,0,0,0,0,0,0,0,0,0,0,0,0,0,0,0,0,0,0,0,0,0,0,0,0,0,0,0,0,0,0,0,0,0,0,0,0,0,0,0,0,0,0,0,0,0,0,0,0,0,0,0,-1.2485,-1.2484,0,-1.2373,-1.2371,-1.237,-1.2306,-1.2306,-1.2306,-1.2306,-1.219,-1.2187,-1.2184,0,0,0,0,0,0,0,0,0,0,0,0,0,-1.2647,-1.2644,-1.2486,-1.2484,-1.2483,-1.2373,-1.2371,-1.237,-1.2306,-1.2306,-1.2306,-1.2306,-1.2191,-1.2187,-1.2184,0,0,0,0,0,0,0,0,0,0,0,0,0,-1.256,-1.2643,-1.2486,-1.2438,-1.2432,-1.2373,-1.2371,-1.2369,-1.2306,-1.2306,-1.2306,-1.2306,-1.2192,-1.2188,-1.2183,-1.2163,0,0,-1.217,-1.2168,0,0,0,0,0,0,0,0,-1.2565,-1.2554,-1.2446,-1.2441,-1.2435,-1.2353,-1.2386,-1.23,-1.2307,-1.2354,-1.2306,-1.2305,-1.2244,-1.2236,-1.2215,-1.2157,-1.2152,-1.217,-1.2167,-1.2165,-1.2164,0,0,0,0,0,0,0,-1.2571,-1.2558,-1.2441,-1.2445,-1.2438,-1.2422,-1.241,-1.2369,-1.2302,-1.235,-1.2345,-1.2333,-1.2241,-1.222,-1.2212,-1.2151,-1.217,-1.2166,-1.2163,-1.2162,-1.2072,-1.2073,0,0,0,0,0,0,-1.2585,-1.2564,-1.2444,-1.2437,-1.25,-1.242,-1.2405,-1.238,-1.2303,-1.2291,-1.2333,-1.233,-1.2227,-1.2217,-1.2208,-1.2179,-1.2165,-1.2161,-1.2159,-1.2072,-1.2072,-1.2073,0,0,0,0,0,0,-1.2588,-1.2574,-1.2449,-1.2499,-1.2482,-1.2417,-1.2389,-1.2378,-1.2356,-1.229,-1.2278,-1.2323,-1.2226,-1.2214,-1.2175,-1.2174,-1.2159,-1.2155,-1.2072,-1.2072,-1.2073,-1.2122,0,0,0,0,0,0,-1.2593,-1.2576,-1.2567,-1.25,-1.248,-1.2418,-1.2389,-1.2376,-1.2349,-1.2344,-1.2277,-1.2266,-1.2225,-1.2182,-1.2171,-1.2168,-1.2152,-1.2072,-1.2072,-1.2072,-1.212,-1.2124,-1.2127,0,0,0,0,0,-1.2599,-1.2585,-1.2567,-1.2553,-1.2467,-1.2418,-1.2406,-1.236,-1.2349,-1.234,-1.2298,-1.2268,-1.2177,-1.2178,-1.2165,-1.2161,-1.2071,-1.2072,-1.2072,-1.2119,-1.2123,-1.2127,0,0,0,0,0,0,-1.2654,-1.2575,-1.2554,-1.2518,-1.2475,-1.2407,-1.2394,-1.2366,-1.2325,-1.2322,-1.2266,-1.2252,-1.2219,-1.2186,-1.2189,-1.2139,-1.2121,-1.2119,-1.2161,-1.2164,-1.2168,-1.2176,-1.2148,0,0,0,0,0,-1.2662,-1.2628,-1.2562,-1.2536,-1.2516,-1.2459,-1.2436,-1.2404,-1.2357,-1.2338,-1.2293,-1.2249,-1.221,-1.2186,-1.2146,-1.2116,-1.2101,-1.2107,-1.2111,-1.2114,-1.2113,-1.2095,-1.2097,-1.2074,-1.2074,-1.2074,0,0,-1.2677,-1.2631,-1.2613,-1.2546,-1.2509,-1.2476,-1.2444,-1.241,-1.2385,-1.2333,-1.2293,-1.226,-1.2206,-1.2172,-1.2155,-1.2144,-1.2116,-1.2115,-1.2118,-1.2114,-1.2096,-1.2098,-1.21,-1.2075,-1.2075,-1.2075,0,0,-1.2689,-1.265,-1.2625,-1.2589,-1.2534,-1.2497,-1.2491,-1.2428,-1.2403,-1.2363,-1.2324,-1.2294,-1.2228,-1.2192,-1.2165,-1.2167,-1.2138,-1.2156,-1.2174,-1.2158,-1.216,-1.2161,-1.2162,-1.2163,-1.2155,-1.2155,-1.2155,0,-1.2715,-1.2663,-1.2616,-1.2584,-1.2556,-1.251,-1.2484,-1.2452,-1.2387,-1.2369,-1.2358,-1.2276,-1.2237,-1.2194,-1.2195,-1.2175,-1.2167,-1.2162,-1.2163,-1.2164,-1.2165,-1.2165,-1.2165,-1.2157,-1.2157,-1.2157,-1.2157,0,-1.2699,-1.2664,-1.265,-1.2589,-1.256,-1.2532,-1.2481,-1.2457,-1.2429,-1.2393,-1.2354,-1.2306,-1.2257,-1.2244,-1.2216,-1.2198,-1.2193,-1.2174,-1.2155,-1.217,-1.2169,-1.2169,-1.2161,-1.216,-1.2159,-1.2159,0,0,-1.2739,-1.2654,-1.265,-1.2622,-1.2559,-1.2531,-1.2502,-1.2454,-1.2436,-1.2393,-1.2367,-1.2314,-1.2296,-1.2266,-1.2234,-1.222,-1.2225,-1.2202,-1.22,-1.2208,-1.2203,-1.2217,-1.2218,-1.2206,-1.2206,-1.2206,-1.2207,0,-1.2741,-1.2685,-1.2643,-1.2604,-1.2571,-1.2528,-1.2502,-1.2461,-1.2428,-1.2396,-1.2359,-1.2322,-1.2302,-1.2283,-1.2268,-1.2227,-1.2223,-1.2227,-1.2182,-1.2181,-1.2195,-1.2217,-1.2232,-1.2235,-1.2206,-1.2206,-1.2206,0,-1.2735,-1.2695,-1.2653,-1.2595,-1.258,-1.2558,-1.2512,-1.2482,-1.2435,-1.2412,-1.238,-1.2347,-1.2314,-1.23,-1.2255,-1.2259,-1.2239,-1.2217,-1.2216,-1.2209,-1.2193,-1.221,-1.2235,-1.2235,-1.2205,-1.2205,-1.2205,0,-1.2769,-1.2705,-1.2671,-1.2649,-1.2581,-1.2566,-1.2537,-1.249,-1.2465,-1.2425,-1.2408,-1.2366,-1.2342,-1.231,-1.2266,-1.226,-1.2227,-1.2208,-1.2207,-1.2208,-1.22,-1.2201,-1.2221,-1.2189,-1.2189,-1.2189,-1.2189,0,-1.2775,-1.2751,-1.2686,-1.2665,-1.2637,-1.2589,-1.2563,-1.253,-1.249,-1.2462,-1.2423,-1.2398,-1.2343,-1.2312,-1.2278,-1.2247,-1.2236,-1.2217,-1.2208,-1.222,-1.2222,-1.2205,-1.2203,-1.2189,-1.2189,-1.2189,-1.2189,0,-1.2807,-1.2762,-1.2723,-1.2662,-1.2647,-1.2629,-1.2577,-1.2556,-1.2521,-1.2488,-1.2477,-1.2423,-1.2384,-1.2339,-1.2285,-1.2263,-1.2234,-1.2222,-1.225,-1.2245,-1.2246,-1.2246,-1.2254,-1.2253,-1.2222,-1.2223,-1.2223,0,-1.2813,-1.2794,-1.2732,-1.2711,-1.2683,-1.265,-1.2624,-1.2577,-1.2553,-1.25,-1.2485,-1.2444,-1.2408,-1.235,-1.2306,-1.2265,-1.2251,-1.2257,-1.2244,-1.2257,-1.2251,-1.2252,-1.225,-1.2259,-1.226,-1.226,-1.2261,0,-1.2829,-1.2809,-1.2773,-1.2731,-1.2702,-1.2667,-1.2629,-1.2615,-1.256,-1.2535,-1.2495,-1.2468,-1.2415,-1.2375,-1.2329,-1.23,-1.2272,-1.2266,-1.2263,-1.2274,-1.2292,-1.2282,-1.2258,-1.2265,-1.2265,-1.2264,-1.2264,-1.2264,-1.2848,-1.2829,-1.2783,-1.2746,-1.2713,-1.268,-1.2657,-1.2621,-1.2587,-1.254,-1.2515,-1.2477,-1.2432,-1.2369,-1.234,-1.231,-1.23,-1.2296,-1.2295,-1.2295,-1.2298,-1.2298,-1.2302,-1.2302,-1.2301,-1.2301,-1.2301,0,-1.2862,-1.2831,-1.2797,-1.2746,-1.2718,-1.2695,-1.2653,-1.263,-1.2597,-1.2558,-1.2525,-1.2481,-1.2443,-1.2397,-1.2356,-1.234,-1.2327,-1.2331,-1.2331,-1.2325,-1.231,-1.2316,-1.2343,-1.2343,-1.2343,-1.2343,-1.2343,-1.2343,-1.2865,-1.2833,-1.2807,-1.2759,-1.2727,-1.269,-1.2668,-1.2637,-1.2606,-1.2559,-1.2527,-1.2498,-1.2457,-1.2413,-1.2377,-1.2365,-1.2351,-1.236,-1.2344,-1.233,-1.2326,-1.2323,-1.2328,-1.2357,-1.2357,-1.2361,-1.2361,-1.2361]},{"header":{"parameterUnit":"m.s-1","parameterCategory":1,"la1":30.2991,"la2":30.254,"lo1":-89.0895,"lo2":-89.0444,"dy":0.0017,"dx":0.0017,"nx":28,"ny":28,"refTime":"2025-06-20T21:00:00:Z","depth":0,"parameterNumber":3,"parameterNumberName":"V-component_of_WINDS"},"data":[0,0,0,0,0,0,0,0,0,0,0,0,0,0,0,0,0,0,0,0,0,0,0,0,0,0,0,0,0,0,0,0,0,0,0,0,0,0,0,0,0,0,0,0,0,0,0,0,0,0,0,0,0,0,0,0,0,0,2.4834,2.4834,0,2.4805,2.4805,2.4805,2.4852,2.4853,2.4855,2.4857,2.4822,2.482,2.4818,0,0,0,0,0,0,0,0,0,0,0,0,0,2.4926,2.4924,2.4834,2.4834,2.4833,2.4805,2.4805,2.4804,2.4851,2.4853,2.4855,2.4857,2.4823,2.482,2.4817,0,0,0,0,0,0,0,0,0,0,0,0,0,2.4891,2.4924,2.4834,2.4854,2.4855,2.4805,2.4805,2.4804,2.4851,2.4853,2.4856,2.4858,2.4824,2.4821,2.4817,2.4746,0,0,2.4806,2.4804,0,0,0,0,0,0,0,0,2.4892,2.4887,2.4851,2.4852,2.4854,2.4835,2.4825,2.4785,2.485,2.4852,2.4857,2.4859,2.4824,2.4821,2.481,2.4744,2.4743,2.4806,2.4803,2.4802,2.4801,0,0,0,0,0,0,0,2.4895,2.4889,2.4823,2.485,2.4852,2.4862,2.486,2.4818,2.4825,2.4852,2.4856,2.4852,2.4825,2.4813,2.4809,2.4742,2.4806,2.4803,2.48,2.4799,2.4617,2.4614,0,0,0,0,0,0,2.4896,2.489,2.4823,2.4822,2.488,2.4859,2.4856,2.4838,2.4825,2.4826,2.485,2.4854,2.4818,2.4814,2.4808,2.4724,2.4802,2.4798,2.4796,2.4619,2.4616,2.4613,0,0,0,0,0,0,2.4897,2.4889,2.4825,2.4857,2.485,2.4855,2.4834,2.4836,2.4824,2.4824,2.4825,2.4836,2.482,2.4813,2.4761,2.4723,2.4797,2.4794,2.4622,2.4618,2.4615,2.4554,0,0,0,0,0,0,2.49,2.489,2.4863,2.4856,2.4848,2.4779,2.4832,2.4834,2.4818,2.4824,2.4811,2.4811,2.4821,2.4766,2.4758,2.472,2.4791,2.4626,2.4621,2.4616,2.4559,2.4548,2.4539,0,0,0,0,0,2.4903,2.4846,2.4862,2.4853,2.4815,2.4777,2.4772,2.4786,2.4815,2.4788,2.4788,2.4812,2.4729,2.4761,2.4751,2.4711,2.4628,2.4622,2.4616,2.4564,2.455,2.4539,0,0,0,0,0,0,2.4847,2.4846,2.4863,2.4802,2.4789,2.4785,2.4751,2.4771,2.4748,2.4754,2.4771,2.4768,2.4712,2.4707,2.4742,2.4642,2.4684,2.4675,2.4647,2.4634,2.4624,2.4626,2.4788,0,0,0,0,0,2.4828,2.4798,2.4798,2.4745,2.4738,2.4745,2.4729,2.4741,2.4728,2.4722,2.4718,2.4703,2.4674,2.4654,2.4627,2.456,2.4557,2.4527,2.4517,2.4509,2.4501,2.4465,2.4451,2.4594,2.4594,2.4594,0,0,2.4787,2.4783,2.4763,2.4733,2.4725,2.4692,2.474,2.4704,2.4679,2.4716,2.4667,2.4663,2.4648,2.4588,2.4561,2.4582,2.4462,2.4501,2.4495,2.4491,2.4457,2.4444,2.4432,2.4589,2.459,2.4591,0,0,2.4697,2.4691,2.4646,2.4637,2.4624,2.463,2.4619,2.4612,2.4611,2.4563,2.459,2.4561,2.451,2.4498,2.4485,2.4391,2.4412,2.4382,2.4328,2.4292,2.4281,2.4271,2.4237,2.4225,2.4375,2.4375,2.4374,0,2.4647,2.4601,2.462,2.4582,2.4567,2.4602,2.4555,2.4545,2.4523,2.4512,2.4537,2.4474,2.4466,2.4403,2.4381,2.437,2.4357,2.4383,2.4282,2.4272,2.4263,2.423,2.4218,2.4371,2.4371,2.4372,2.4372,0,2.4541,2.4508,2.4473,2.4453,2.4435,2.4393,2.4404,2.4384,2.4398,2.4401,2.4351,2.4343,2.4315,2.4301,2.4314,2.424,2.4253,2.4279,2.4321,2.4245,2.4215,2.4203,2.4366,2.4367,2.4368,2.4369,0,0,2.4412,2.4404,2.4391,2.4382,2.4371,2.4346,2.4305,2.428,2.4261,2.4246,2.4211,2.4168,2.4193,2.4178,2.419,2.4159,2.4085,2.4189,2.4189,2.4169,2.4002,2.3982,2.3967,2.4099,2.4097,2.4095,2.4003,0,2.4321,2.4252,2.4269,2.42,2.417,2.4203,2.4167,2.4156,2.4158,2.4132,2.4134,2.4103,2.4138,2.4129,2.41,2.41,2.4051,2.4107,2.4066,2.4064,2.4067,2.3951,2.3929,2.3843,2.3991,2.3989,2.3988,0,2.4205,2.4187,2.4116,2.4111,2.4099,2.4066,2.4045,2.402,2.4007,2.4011,2.3996,2.4014,2.3973,2.4017,2.396,2.3997,2.3982,2.3979,2.3976,2.3972,2.402,2.3942,2.3815,2.3802,2.397,2.3971,2.3972,0,2.4117,2.4075,2.4027,2.4019,2.4012,2.3988,2.3984,2.3975,2.3958,2.3939,2.3928,2.3904,2.389,2.387,2.3881,2.3912,2.3822,2.3867,2.3823,2.3822,2.38,2.3801,2.3668,2.3793,2.3793,2.3793,2.3793,0,2.4013,2.3968,2.3987,2.3958,2.3908,2.3927,2.3877,2.3877,2.3868,2.3838,2.3865,2.3836,2.3853,2.3825,2.3833,2.3784,2.3778,2.3779,2.3781,2.3776,2.3775,2.3765,2.377,2.379,2.379,2.3791,2.3792,0,2.3906,2.3917,2.3867,2.3865,2.3863,2.3827,2.3824,2.3796,2.3801,2.3763,2.3755,2.3762,2.3731,2.374,2.3706,2.3712,2.365,2.366,2.3654,2.3656,2.3611,2.3614,2.3465,2.3446,2.3583,2.3582,2.3581,0,2.3838,2.3804,2.3799,2.3782,2.3776,2.3748,2.3732,2.375,2.3732,2.3716,2.369,2.3661,2.3639,2.3587,2.3588,2.3563,2.3572,2.3522,2.3568,2.3564,2.357,2.3571,2.3568,2.3511,2.351,2.3509,2.3508,0,2.3716,2.3724,2.37,2.3679,2.366,2.3643,2.3629,2.3613,2.363,2.3609,2.3578,2.3561,2.3527,2.3498,2.3475,2.3469,2.349,2.3493,2.3481,2.3474,2.3472,2.3472,2.3627,2.3496,2.3497,2.3498,2.3499,2.3499,2.3625,2.3597,2.3589,2.3563,2.3555,2.3541,2.3515,2.3517,2.3492,2.3467,2.3479,2.3443,2.3433,2.3404,2.3395,2.3367,2.3386,2.3369,2.3365,2.336,2.3354,2.3478,2.3363,2.3363,2.3363,2.3364,2.3364,0,2.3504,2.3501,2.3477,2.3457,2.3436,2.3461,2.3446,2.3427,2.3395,2.3384,2.3363,2.3327,2.33,2.33,2.3274,2.3251,2.326,2.3243,2.3244,2.3243,2.3338,2.3351,2.3236,2.3236,2.3236,2.3236,2.3236,2.3236,2.3438,2.3392,2.3398,2.3348,2.3345,2.3312,2.3301,2.3289,2.328,2.324,2.3218,2.3219,2.3212,2.3186,2.3161,2.3162,2.3151,2.313,2.3134,2.3223,2.3236,2.3248,2.326,2.3128,2.3128,2.3041,2.304,2.3039]}]]